Regional Weather Roundup
Issued by NWS Upton, NY

Current Version | Previous Version | Graphics & Text | Print | Product List | Glossary Off
Versions: 1 2 3 4 5 6 7 8 9 10 11 12 13 14 15 16 17 18 19 20 21 22 23 24 25 26 27 28 29 30 31 32 33 34 35 36 37 38 39 40 41 42 43 44 45 46 47 48 49 50

000
ASUS41 KOKX 311905
RWROKX
REGIONAL WEATHER ROUNDUP
NATIONAL WEATHER SERVICE NEW YORK NY
300 PM EDT SUN AUG 31 2014

NOTE: "FAIR" INDICATES FEW OR NO CLOUDS BELOW 12,000 FEET WITH NO
SIGNIFICANT WEATHER AND/OR OBSTRUCTIONS TO VISIBILITY.

NYZ071-072-176-178-NJZ106-104-312000-
NEW YORK CITY METRO AREA


CITY           SKY/WX    TMP DP  RH WIND       PRES   REMARKS
CENTRAL PARK   PTSUNNY   89  70  53 MISG      30.00F HX  94
LAGUARDIA APRT PTSUNNY   89  71  55 S13       29.97F HX  95
KENNEDY INTL   PTSUNNY   85  73  67 S15       30.00F HX  91
NEWARK/LIBERTY PTSUNNY   92  68  45 SW14      29.97F HX  96
BRNX BOT. GARD   N/A     88  70  55 SW6       29.98F HX  92
TETERBORO      PTSUNNY   91  68  46 W10G18    29.96F HX  95
$$

NYZ177-179-078>081-312000-
LONG ISLAND NEW YORK

CITY           SKY/WX    TMP DP  RH WIND       PRES   REMARKS
FARMINGDALE    SUNNY     82  73  74 S15       30.01F
ISLIP          PTSUNNY   82  73  74 S10       30.00F
SHIRLEY        PTSUNNY   80  73  79 S13       30.04F
WESTHAMPTON    CLOUDY    80  72  76 SW12      30.05F
MONTAUK POINT    N/A     77  72  84 SW9       30.05F
$$

NYZ052-065-067-312000-
HUDSON VALLEY

CITY           SKY/WX    TMP DP  RH WIND       PRES   REMARKS
WHITE PLAINS   PTSUNNY   84  72  67 CALM      29.99F
NEWBURGH       PTSUNNY   82  72  69 SW7       30.01F
MONTGOMERY     PTSUNNY   85  70  60 SW8       29.98F
POUGHKEEPSIE   CLOUDY    82  71  69 S3        29.97F
ALBANY         CLOUDY    75  71  87 S6        29.98F
$$

NJZ001-105-106-008-010-013-015-019>022-104-312000-
NEW JERSEY

CITY           SKY/WX    TMP DP  RH WIND       PRES   REMARKS
NEWARK/LIBERTY PTSUNNY   92  68  45 SW14      29.97F HX  96
TETERBORO      PTSUNNY   91  68  46 W10G18    29.96F HX  95
CALDWELL       PTSUNNY   87  69  54 VRB6      29.98F HX  91
MORRISTOWN     PTSUNNY   88  70  55 W6G14     29.98F HX  92
SOMERVILLE     PTSUNNY   88  71  57 CALM      29.95F HX  94
LINDEN         MOCLDY    94  71  46 W5        29.99F HX 101
SUSSEX         PTSUNNY   83  71  67 SW10      30.01F HAZE
ANDOVER          N/A     80  71  74 SW6       30.00F
TRENTON        PTSUNNY   88  70  55 SW13      29.98F HX  93
MILLVILLE      SUNNY    N/A N/A N/A S8G18     30.02F
ATLANTIC CITY  SUNNY     87  73  62 S14       30.03F HX  94
WRIGHTSTOWN    PTSUNNY   89  73  57 SW14G21   29.97F HX  97
TOMS RIVER     MOSUNNY   93  70  46 SW20      30.00F HX  99
BELMAR         PTSUNNY   90  70  51 SW10      30.00F HX  95
$$

PAZ047>061-062-071-312000-
EASTERN PENNSYLVANIA

CITY           SKY/WX    TMP DP  RH WIND       PRES   REMARKS
PHILADELPHIA   PTSUNNY   92  69  47 SW18      29.99F HX  97
ALLENTOWN      CLOUDY    82  73  74 W6        30.00F
SCRANTON       CLOUDY    80  68  66 SW9       30.02F
$$

CTZ002-004>006-009-010-012-RIZ004-006-007-MAZ004-011-015-312000-
SOUTHERN NEW ENGLAND
 IN CT

CITY           SKY/WX    TMP DP  RH WIND       PRES   REMARKS
BRADLEY INTL   CLOUDY    82  70  66 SW9       29.99F
HARTFORD       CLOUDY    83  69  62 VRB5      30.00F
DANBURY        MOSUNNY   83  71  67 SW7       30.01F
WTRBRY/OXFORD  PTSUNNY   81  70  69 W5        30.05F
BRIDGEPORT     MOSUNNY   83  72  69 S6        30.00F
MERIDEN        MOSUNNY   86  70  58 W8        30.00F HX  90
NEW HAVEN      SUNNY     84  72  67 S6        30.00F
CHESTER        MOCLDY    81  73  78 SW6       30.05F
GROTON         PTSUNNY   76  72  87 S8        30.02F
WILLIMANTIC    PTSUNNY   82  71  69 SW10      30.02F

 IN RI

CITY           SKY/WX    TMP DP  RH WIND       PRES   REMARKS
PROVIDENCE     CLOUDY    82  71  69 SW10      30.02F
BLOCK ISLAND   CLOUDY    75  70  83 SW14G23   30.05F
WESTERLY       CLOUDY    77  71  82 S14       30.04F

 IN MA

CITY           SKY/WX    TMP DP  RH WIND       PRES   REMARKS
BOSTON         PTSUNNY   83  70  64 SW15G28   29.98F
WORCESTER      CLOUDY    76  69  79 SW13G21   30.04F
WESTFIELD      PTSUNNY   83  70  64 S14       29.99F
PROVINCETOWN   SUNNY     79  70  73 SW17G26   30.02F
NANTUCKET      CLOUDY    73  67  81 SW15      30.06F
$$

ANZ330-335-338-340-345-350-353-355-312000-
COASTAL MARINE OBSERVATIONS


STATION/POSITION TIME  SKY/WX   TEMP    WIND        PRES    VSBY  WAVE
                                AIR SEA DIR/SP/G                  HT/PER
                 (UTC)          (F)     (DEG/KT/KT) (MB)    (MI)  (FT/S)
NY HARB ENTRANCE NOT AVBL
4S FIRE IS       NOT AVBL
23SW MTP         1900                                 N/A           4/ 5
HUDSON CANYON    1900            75 73  210/ 14/ 17 1018.1          3/ 9
EXECUTION ROCKS  1900            83 74  200/  8/ 12   N/A
WESTERN LI SOUND 1900            82     210/  4/  4   N/A           1
CENTRAL LI SOUND 1800            76 73   20/  4/  4   N/A           1/ 3
EASTERN LI SOUND 1800            74 69  200/  6/  8   N/A
ROBBINS REEF     1900            83     170/ 15/ 16   N/A
$$


>>>>>>>>>>>>>>>>>>>>>>>>>>>> KEY <<<<<<<<<<<<<<<<<<<<<<<<<<<
>                                                          <
>     SKY/WX - SKY CONDITION/PRESENT WEATHER               <
>     TMP    - TEMPERATURE IN FAHRENHEIT                   <
>     DP     - DEWPOINT IN FAHRENHEIT                      <
>     RH     - RELATIVE HUMIDITY IN PERCENT                <
>     WIND   - DIRECTION AND SPEED IN MPH                  <
>     PRES   - MEAN SEA LEVEL PRESSURE IN INCHES OF HG     <
>     WCI    - WIND CHILL INDEX                            <
>     VSB    - VISIBILITY IN MILES                         <
>     HX     - HEAT INDEX                                  <
>     TC     - TEMPERATURE IN CELSIUS                      <
>     VRB    - VARIABLE WIND DIRECTION                     <
>                                                          <
>>>>>>>>>>>>>>>>>>>>>>>>>>>> KEY <<<<<<<<<<<<<<<<<<<<<<<<<<<





USA.gov is the U.S. government's official web portal to all federal, state and local government web resources and services.